Theta_e
312 312 313 313 313 313 314 314 314 315 315 316 316 316 317 317 318 318 323 326 328 329 328 333 344 349 347 348 347 342 344 343 336 337 337 336 339 341 341 346 347 347 348 350 350
312 312 312 313 313 313 314 314 314 315 315 315 316 316 317 317 318 320 323 326 324 324 325 342 345 346 345 346 341 339 341 338 336 336 336 337 336 337 342 349 349 348 350 350 350
311 311 312 312 313 313 314 314 314 315 315 315 316 316 317 317 320 327 329 326 326 321 327 341 342 339 342 341 338 337 338 338 336 335 335 336 338 338 340 346 348 350 350 349 351
311 311 311 312 312 313 313 314 314 315 315 315 316 316 317 317 330 337 333 327 325 321 329 339 340 338 339 340 336 337 337 337 337 335 336 338 337 338 339 342 347 351 350 350 351
311 311 312 312 312 312 313 314 314 315 315 315 316 316 317 323 327 331 326 329 325 321 336 340 339 337 337 337 335 336 336 337 336 336 336 337 338 340 337 341 342 351 350 351 351
312 312 312 312 312 313 313 313 314 315 315 315 316 316 317 324 328 327 323 329 323 325 336 336 338 335 334 333 334 334 334 335 335 336 336 338 337 339 341 342 345 351 350 350 352
311 312 313 313 313 313 313 313 313 314 315 315 316 316 320 321 323 332 333 330 329 331 331 332 334 332 333 333 332 333 334 333 335 336 336 336 336 339 341 343 345 349 350 350 352
308 309 310 313 314 314 313 314 314 314 315 315 315 316 322 322 323 323 333 335 332 332 331 330 328 327 328 329 330 332 332 332 334 336 336 335 335 340 341 342 347 348 349 350 351
308 308 309 310 312 315 314 314 315 315 314 315 315 320 326 323 323 323 328 334 333 332 330 329 327 327 328 328 328 330 329 332 334 335 336 335 335 336 336 342 345 347 348 349 352
308 308 308 308 310 313 316 314 315 316 315 316 316 323 323 324 323 323 324 331 332 331 328 327 327 327 328 328 328 330 330 332 334 335 336 334 334 335 336 337 340 347 349 349 352
307 309 309 309 309 311 316 315 321 325 322 323 325 323 323 324 324 324 323 324 327 327 329 327 328 328 328 329 330 330 330 331 332 334 334 333 333 333 335 337 337 345 350 349 351
307 308 309 310 309 311 314 318 320 317 318 319 321 324 324 325 324 324 325 324 325 327 328 328 328 329 329 330 330 330 330 331 331 331 331 331 332 333 335 336 338 340 349 350 350
307 306 307 310 309 316 315 316 318 316 318 319 319 320 323 324 325 325 325 325 326 327 328 329 329 329 329 329 328 329 329 329 330 331 331 331 331 333 335 335 338 338 346 349 351
306 306 306 309 313 314 315 317 315 316 319 321 322 321 321 323 325 324 325 326 327 329 330 330 330 329 329 328 328 329 329 329 329 330 329 331 330 339 336 336 339 339 339 348 350
307 306 306 304 309 311 315 314 314 316 321 323 325 324 323 323 325 325 324 325 327 328 329 329 330 329 329 329 329 328 328 328 329 330 330 330 330 334 337 338 342 341 340 343 349
314 306 306 307 309 313 313 313 314 319 322 323 324 325 324 324 325 326 326 325 325 327 329 330 330 330 330 330 329 329 327 328 329 329 330 332 331 334 337 338 337 343 343 343 349
319 311 305 306 309 312 312 313 318 320 323 323 323 325 324 325 325 326 327 327 327 328 329 329 329 330 330 329 329 328 326 327 330 330 330 333 331 334 337 338 339 344 344 347 349
318 317 308 309 311 313 314 316 319 322 323 324 324 325 324 324 325 325 326 327 327 327 327 329 328 329 330 329 329 329 328 328 332 331 333 337 332 335 335 333 336 338 349 350 351
317 314 311 313 314 314 314 317 320 322 323 324 324 324 324 324 325 325 325 327 327 328 329 329 328 330 330 330 330 329 330 329 329 330 330 332 336 334 334 333 333 342 347 350 351
316 312 314 315 316 314 316 316 319 321 322 323 324 324 324 324 324 325 325 326 327 328 330 329 330 329 330 331 331 330 329 328 330 334 335 332 336 334 339 337 336 344 345 350 351
314 313 318 317 317 316 317 318 320 320 321 322 323 323 324 324 324 325 326 326 327 327 328 328 331 330 330 331 330 330 329 329 329 331 331 334 334 338 338 337 342 345 345 350 350
311 315 317 316 318 319 319 319 318 319 320 322 322 322 323 323 324 326 326 327 327 329 326 327 327 329 328 330 331 329 330 329 330 333 333 336 333 331 335 335 337 338 347 351 348
311 314 313 315 316 320 321 321 319 319 320 320 321 322 323 322 323 324 324 325 327 328 331 332 327 327 329 329 330 328 328 329 333 335 335 336 333 338 343 343 344 348 349 353 350
310 316 316 318 315 318 320 321 321 319 319 318 320 321 322 322 323 323 323 324 326 327 324 330 331 337 328 330 331 332 329 329 331 335 334 331 346 350 346 347 347 349 353 353 352
313 316 317 322 323 323 322 320 321 322 322 318 321 320 320 321 322 322 323 324 325 323 326 330 337 333 329 328 328 329 330 329 329 330 331 334 349 346 337 337 341 350 354 351 348
314 314 317 318 320 323 322 322 321 321 324 325 324 323 322 323 322 323 323 324 326 328 327 331 336 334 332 330 331 329 330 331 330 328 328 330 344 339 336 339 344 344 351 352 351
311 310 310 314 319 324 324 324 321 322 322 323 325 325 324 322 325 324 322 323 325 329 331 333 336 336 335 332 332 331 330 335 330 331 335 338 346 346 348 349 348 348 349 348 346
Wind_Speed
13 13 13 14 14 14 14 14 15 15 14 14 15 18 18 17 15 16 13 14 11 10 8 8 7 11 15 21 18 14 10 13 12 9 11 9 3 7 2 13 10 7 12 21 20
14 14 14 15 15 15 15 15 15 15 15 15 15 16 17 19 19 18 14 16 15 17 12 10 9 10 15 21 17 11 8 11 7 8 9 12 3 5 2 20 4 16 21 20 21
15 15 16 16 16 16 17 17 17 16 16 16 16 15 17 18 19 12 11 13 14 16 13 12 13 12 16 22 18 10 12 12 13 9 11 13 5 10 2 8 22 21 21 21 20
17 17 17 17 18 17 17 17 18 18 17 16 16 16 15 15 7 1 5 9 12 14 15 16 16 17 17 19 23 6 15 12 16 15 7 12 9 7 6 9 16 25 22 22 20
17 18 19 19 19 19 19 19 18 18 18 17 17 17 14 9 19 12 8 10 13 15 16 18 19 19 16 17 22 17 13 17 14 22 6 7 8 13 6 9 5 23 22 22 19
19 20 20 21 21 21 21 21 20 18 17 17 17 16 14 17 8 13 12 10 9 16 16 17 19 19 22 19 19 21 23 17 19 26 14 5 14 3 11 5 11 20 20 21 19
19 20 21 22 22 23 22 21 21 20 18 17 16 16 14 23 8 9 10 9 11 13 15 16 17 20 21 18 26 25 18 17 21 25 10 8 13 1 11 4 10 16 16 19 18
21 21 21 21 22 23 23 23 22 21 19 17 15 13 13 16 13 17 12 13 13 13 14 15 11 17 21 22 24 22 22 15 18 20 6 8 14 8 16 10 9 12 16 18 18
21 21 22 24 24 24 23 21 21 21 19 17 15 12 21 11 19 17 18 18 15 15 15 15 13 17 20 17 16 17 16 20 21 18 5 6 13 10 4 13 11 12 13 17 18
23 23 22 23 23 24 23 20 18 18 18 15 16 11 23 24 19 17 21 21 20 15 16 17 16 13 15 14 13 18 16 17 16 13 14 10 13 11 9 6 9 15 14 18 20
23 23 24 22 22 20 21 16 12 6 6 17 14 15 26 8 11 16 21 21 22 21 18 21 14 15 20 19 20 19 17 18 17 16 11 10 13 12 20 7 8 17 18 18 20
23 24 23 21 19 14 11 9 6 9 15 22 27 32 31 23 16 21 18 26 25 21 21 19 19 21 20 19 18 13 13 16 16 16 13 15 17 15 19 4 10 12 21 19 21
25 25 24 20 15 7 12 12 9 11 12 29 31 34 33 30 27 22 23 26 22 22 20 21 21 22 23 17 17 13 16 17 17 16 14 14 14 16 19 9 8 10 18 22 22
25 26 23 23 8 7 11 6 10 12 8 18 26 38 38 37 32 34 30 29 24 25 24 20 22 21 17 13 13 16 18 19 16 16 11 14 13 15 18 15 14 14 12 22 21
24 25 22 20 18 11 11 15 13 8 7 12 20 32 39 41 37 29 34 33 26 25 22 22 22 20 17 19 13 16 17 16 14 11 15 17 11 14 13 16 15 15 17 13 24
24 24 24 13 18 9 14 14 10 7 13 13 23 10 25 32 32 37 31 37 35 27 25 25 27 21 17 18 16 16 17 18 12 13 14 18 16 15 11 10 7 14 9 10 20
23 23 23 19 11 9 11 10 7 10 8 20 22 20 17 20 23 26 28 28 25 23 22 27 26 24 23 11 14 13 15 11 12 13 13 20 17 11 8 18 12 20 21 14 13
28 25 17 16 8 7 9 9 14 12 21 18 25 22 22 19 23 24 27 24 25 27 19 21 22 26 23 20 16 16 14 12 15 14 12 11 7 9 7 6 16 11 19 15 15
28 22 15 13 6 6 9 11 14 15 21 21 19 21 22 18 16 23 28 27 26 26 23 20 28 20 27 26 21 20 17 17 18 19 14 12 6 7 9 11 7 18 17 14 16
30 21 13 7 6 6 9 15 20 25 24 22 18 18 17 18 18 21 20 19 31 31 24 24 22 26 25 23 25 24 16 15 12 16 16 15 14 4 10 11 10 16 17 17 19
18 11 6 4 4 10 10 16 18 24 27 20 15 17 20 20 19 15 15 19 19 26 23 25 21 23 20 24 17 16 15 16 18 13 13 12 10 6 5 6 9 12 19 22 20
8 6 5 3 9 12 12 17 23 22 25 17 11 16 21 22 14 17 8 15 34 23 24 22 16 17 24 21 22 16 20 19 11 14 13 12 10 14 9 8 9 7 21 25 22
8 17 13 6 8 11 17 17 15 16 17 14 17 17 17 20 19 17 17 12 23 20 13 12 8 9 20 16 12 18 20 19 18 14 18 13 9 12 18 14 9 14 17 23 23
8 5 9 9 16 16 14 15 15 11 14 18 17 21 19 17 20 17 18 20 18 11 18 11 10 14 13 17 17 11 22 18 17 11 15 17 5 14 15 21 20 6 18 16 14
6 5 14 6 7 9 15 15 12 16 14 15 11 17 18 18 18 19 20 18 17 6 6 6 10 15 15 18 14 13 13 19 19 18 15 13 13 10 14 18 20 10 13 14 11
8 18 18 21 19 16 12 12 11 14 15 17 14 11 17 16 18 20 19 18 14 7 14 15 10 12 18 19 18 14 19 23 25 22 20 16 10 14 15 18 12 10 8 7 10
11 13 13 14 17 14 7 11 10 11 12 25 15 15 14 18 17 18 27 24 19 5 2 7 9 8 15 4 24 7 17 17 9 14 6 5 16 17 14 12 17 12 9 12 10
Wind_Direction
347 343 341 340 338 336 336 335 334 333 332 332 330 326 325 317 306 297 274 263 247 263 260 282 270 269 282 282 271 275 286 303 26 27 352 32 95 122 81 130 121 97 112 140 150
338 336 335 333 332 330 328 328 326 327 327 327 326 323 322 316 305 287 274 255 255 254 247 219 243 262 275 277 276 266 269 340 359 4 334 322 108 323 60 97 49 103 113 138 149
333 331 329 327 325 323 322 322 320 321 322 323 324 322 321 318 316 263 233 242 272 253 224 226 252 279 275 282 278 291 306 332 327 36 305 309 358 227 128 130 209 141 143 155 158
330 328 325 321 319 317 315 315 315 316 317 318 318 318 318 316 303 199 262 277 276 242 212 228 251 268 265 273 286 269 277 300 313 313 329 340 329 335 41 72 153 143 159 164 167
329 325 323 320 317 314 312 309 308 309 311 314 314 315 319 280 269 270 268 278 270 221 218 228 243 258 266 277 292 302 271 297 311 300 327 305 273 289 299 78 116 138 163 170 173
331 329 324 321 317 314 311 307 304 302 304 307 309 310 308 269 279 286 271 267 258 209 224 237 245 262 277 299 294 291 298 303 294 284 280 275 296 178 61 329 152 146 173 175 177
332 330 327 324 319 314 308 305 303 301 298 298 300 303 284 253 265 293 228 241 199 210 232 239 250 266 274 277 274 282 279 289 265 268 258 289 277 60 175 179 169 165 182 178 180
333 331 328 324 321 316 310 305 300 298 295 293 291 293 268 264 254 234 226 223 218 222 238 248 269 270 269 273 281 281 279 271 266 257 206 224 275 151 191 153 168 190 182 178 179
335 332 330 327 323 319 314 308 300 296 289 285 285 267 272 266 228 233 223 222 224 232 239 245 255 263 266 252 257 249 256 264 260 265 190 270 286 289 173 156 180 188 188 177 174
337 336 335 330 325 323 320 316 302 293 278 269 259 273 254 242 239 231 224 222 225 230 239 234 242 254 248 248 256 262 238 236 246 248 191 225 240 272 244 169 209 175 182 181 176
331 332 333 333 329 329 329 341 298 260 236 247 246 221 270 272 229 214 216 218 228 242 231 229 233 242 248 244 239 260 283 298 306 310 320 301 296 290 284 175 248 166 168 189 188
331 330 329 332 330 329 335 328 355 307 298 267 264 264 256 268 236 221 219 209 215 229 231 240 233 242 251 268 277 286 292 278 277 282 281 273 270 269 253 190 252 201 170 191 191
330 329 328 329 328 351 317 295 296 315 279 278 265 257 248 242 237 234 214 214 221 226 235 241 241 235 241 234 254 260 263 274 281 288 290 283 257 255 256 191 222 249 186 180 189
330 327 331 325 320 300 317 325 318 312 280 277 256 243 241 239 236 236 235 219 221 233 225 240 246 251 259 233 261 265 264 252 254 261 271 261 256 230 233 217 194 205 211 176 179
331 325 326 327 312 304 307 315 313 292 274 286 252 239 223 229 231 229 227 232 228 231 240 256 257 254 237 253 260 249 262 275 287 275 266 268 264 264 234 215 197 191 182 180 169
329 326 318 323 308 320 313 303 298 242 251 260 279 283 211 217 231 233 221 219 233 233 244 250 252 262 232 243 239 255 262 255 260 264 259 251 251 264 212 184 224 31 118 173 163
323 324 307 296 264 269 309 303 239 241 274 252 254 269 218 233 236 221 232 225 212 232 227 244 251 254 254 260 255 243 240 245 242 239 243 241 234 230 136 187 167 165 185 154 173
324 320 306 295 272 286 288 255 249 265 248 272 287 290 278 231 233 232 234 235 212 222 234 232 239 239 247 228 241 247 233 244 249 251 270 260 241 200 223 133 125 137 134 149 168
330 323 283 285 300 245 245 235 241 254 275 288 322 299 283 275 269 228 227 234 228 220 237 246 254 239 228 233 221 234 258 245 262 277 280 275 208 295 155 188 191 137 144 159 175
329 324 265 180 220 219 236 253 277 276 276 292 283 292 295 289 280 275 269 244 229 236 230 230 250 259 265 248 220 220 235 242 255 262 277 284 289 259 178 152 178 151 158 164 176
330 299 153 219 232 235 244 259 263 258 264 279 302 292 296 298 307 311 309 264 304 242 239 241 244 251 242 254 238 200 226 243 262 256 244 251 264 67 85 208 146 159 152 154 175
301 274 172 203 238 240 253 260 263 276 286 281 233 276 286 296 318 294 266 340 336 317 237 229 235 239 246 250 207 226 238 221 244 258 268 284 291 144 262 184 136 201 147 155 173
295 285 261 245 255 252 278 259 248 273 279 273 278 278 263 281 287 291 300 329 280 268 8 325 245 239 237 234 252 209 239 243 219 227 259 276 261 74 54 59 27 120 145 149 172
295 293 194 242 256 279 291 296 309 263 260 275 286 288 290 269 268 273 280 288 311 288 341 313 285 287 241 241 205 251 226 231 235 226 226 237 101 56 34 34 358 106 120 136 153
259 289 343 271 314 322 310 297 307 305 305 237 262 254 263 279 282 276 274 278 272 288 287 300 292 297 282 263 283 292 284 255 238 253 253 253 129 125 85 64 347 356 120 147 172
296 331 328 302 297 292 267 262 275 288 338 315 305 256 280 263 254 271 274 277 286 316 339 319 273 283 278 280 287 236 239 239 244 230 241 244 141 153 161 149 122 15 106 136 160
317 323 303 290 292 279 322 313 266 303 284 315 308 270 261 258 300 275 247 268 274 313 248 341 301 244 274 3 293 351 248 330 235 266 354 193 78 60 60 67 67 58 50 74 72